星链-6102 (STARLINK-6102 )

导读

STARLINK-6102是美国SpaceX星链(Starlink)项目卫星,于2023年3月29日发射升空,归属美国。作为星链低轨互联网星座组网卫星,它依托低轨轨道部署,承担全球宽带网络覆盖任务,依靠SpaceX批量发射组网模式,为全球用户提供天基互联网接入服务,推进星链星座全球化部署进程。

基本信息
目录编号:
56093
目录名称:
STARLINK-6102
国际标识:
2023-046A
轨道中心:
EARTH
卫星名称:
星链-6102
卫星全名:
星链-6102 (STARLINK-6102 )
卫星状态:
已陨落 最后检测时间 2024-12-19
发射日期:
2023-03-29 UTC
国别 :
美国 (US)
星等 :
--
该卫星已列入 空间交会检测服务 Space Conjunction Data Service (SCDS) ,当前飞行风险评估等级: 无高风险
轨道信息
数据来源 国际轨道数据
星历时间: 2024-12-19T04:36:31+0800
轨道信息已过期632天
半长轴: 6543.662km
偏心率: 0.0001715
轨道倾角: 42.989°
近地点辐角 2.963°
升交点赤经 36.164°
平近点角 140.153°
近地点: 164.404km
远地点: 166.65km
周期: 87.799分钟
每日圈数: 16.401046
详细信息
固有亮度:
5
最大亮度:
2.5
卫星平台:
Starlink v1.5
覆盖范围:
全球
运营商:
太空探索技术公司
运营商所在国:
美国
制造商(研发单位):
太空探索技术公司
制造商所在国:
美国
使用方式:
暂无
卫星简介
星链(Starlink)计划是由太空探索技术公司(SpaceX)提出的一个巨型低轨卫星互联网星座项目,计划在2019年至2024年间在太空搭建由约1.2万颗卫星组成的“星链”网络,其中1584颗将部署在地球上空550千米处的近地轨道,并从2020年开始工作。该卫星仍在工作。
与全量物体交会距离演化趋势
与全量物体交会风险概率演化趋势